QPF
0.00 0.00 0.00 0.00 0.00 0.00 0.00 0.00 0.00 0.00 0.00 0.00 0.00 0.00 0.00 0.00 0.00 0.00 0.00 0.00 0.00 0.01 0.02 0.03 0.04 0.06 0.06 0.07 0.10 0.13 0.12 0.07 0.07 0.07 0.07 0.09 0.10 0.07 0.07 0.07 0.07 0.08 0.08 0.08
0.00 0.00 0.00 0.00 0.00 0.00 0.00 0.00 0.00 0.00 0.00 0.00 0.00 0.00 0.00 0.00 0.00 0.00 0.00 0.00 0.00 0.01 0.02 0.05 0.06 0.05 0.05 0.05 0.09 0.14 0.13 0.09 0.08 0.09 0.09 0.09 0.09 0.06 0.07 0.06 0.06 0.06 0.06 0.06
0.00 0.00 0.00 0.00 0.00 0.00 0.00 0.00 0.00 0.00 0.00 0.00 0.00 0.00 0.00 0.00 0.00 0.00 0.00 0.00 0.00 0.00 0.01 0.02 0.03 0.03 0.04 0.03 0.04 0.10 0.11 0.10 0.12 0.13 0.11 0.13 0.12 0.10 0.08 0.06 0.06 0.05 0.04 0.04
0.00 0.00 0.00 0.00 0.00 0.00 0.00 0.00 0.00 0.00 0.00 0.00 0.00 0.00 0.00 0.00 0.00 0.00 0.00 0.00 0.00 0.00 0.01 0.01 0.02 0.02 0.02 0.03 0.03 0.06 0.10 0.13 0.19 0.17 0.09 0.07 0.08 0.08 0.06 0.06 0.07 0.07 0.06 0.05
0.00 0.00 0.00 0.00 0.00 0.00 0.00 0.00 0.00 0.00 0.00 0.00 0.00 0.00 0.00 0.00 0.00 0.00 0.00 0.00 0.00 0.01 0.01 0.01 0.02 0.01 0.02 0.03 0.03 0.05 0.07 0.09 0.12 0.10 0.10 0.10 0.07 0.08 0.09 0.09 0.10 0.09 0.07 0.06
0.00 0.00 0.00 0.00 0.00 0.00 0.00 0.00 0.00 0.00 0.00 0.00 0.00 0.00 0.00 0.00 0.00 0.00 0.00 0.00 0.00 0.00 0.01 0.01 0.02 0.01 0.02 0.03 0.03 0.03 0.04 0.06 0.08 0.08 0.08 0.10 0.09 0.09 0.09 0.09 0.10 0.07 0.06 0.06
0.00 0.00 0.00 0.00 0.00 0.00 0.00 0.00 0.00 0.00 0.00 0.00 0.00 0.00 0.00 0.00 0.00 0.00 0.00 0.00 0.00 0.00 0.00 0.01 0.02 0.01 0.01 0.03 0.03 0.02 0.02 0.04 0.08 0.10 0.08 0.08 0.10 0.10 0.08 0.09 0.10 0.08 0.06 0.04
0.00 0.00 0.00 0.00 0.00 0.00 0.00 0.00 0.00 0.00 0.00 0.00 0.00 0.00 0.00 0.00 0.00 0.00 0.00 0.00 0.00 0.00 0.00 0.01 0.01 0.01 0.01 0.02 0.02 0.03 0.04 0.05 0.09 0.11 0.10 0.07 0.09 0.10 0.09 0.09 0.08 0.06 0.05 0.05
0.00 0.00 0.00 0.00 0.00 0.00 0.00 0.00 0.00 0.00 0.00 0.00 0.00 0.00 0.00 0.00 0.00 0.00 0.00 0.00 0.00 0.00 0.00 0.01 0.01 0.01 0.01 0.01 0.02 0.02 0.04 0.05 0.09 0.11 0.11 0.08 0.08 0.08 0.09 0.08 0.07 0.07 0.06 0.05
0.00 0.00 0.00 0.00 0.00 0.00 0.00 0.00 0.00 0.00 0.00 0.00 0.00 0.00 0.00 0.00 0.00 0.00 0.00 0.00 0.00 0.00 0.00 0.00 0.00 0.01 0.00 0.01 0.01 0.01 0.02 0.04 0.07 0.08 0.07 0.05 0.07 0.06 0.09 0.10 0.08 0.06 0.05 0.05
0.00 0.00 0.00 0.00 0.00 0.00 0.00 0.00 0.00 0.00 0.00 0.00 0.00 0.00 0.00 0.00 0.00 0.00 0.00 0.00 0.00 0.00 0.00 0.00 0.00 0.00 0.00 0.01 0.01 0.01 0.02 0.02 0.03 0.04 0.05 0.04 0.04 0.04 0.05 0.07 0.07 0.05 0.05 0.06
0.00 0.00 0.00 0.00 0.00 0.00 0.00 0.00 0.00 0.00 0.00 0.00 0.00 0.00 0.00 0.00 0.00 0.00 0.00 0.00 0.00 0.01 0.00 0.00 0.00 0.00 0.00 0.00 0.01 0.01 0.02 0.03 0.03 0.03 0.04 0.04 0.04 0.04 0.04 0.05 0.06 0.07 0.07 0.07
0.00 0.00 0.00 0.00 0.00 0.00 0.00 0.00 0.00 0.00 0.00 0.00 0.00 0.00 0.00 0.00 0.00 0.00 0.00 0.00 0.00 0.00 0.00 0.00 0.00 0.00 0.00 0.01 0.01 0.01 0.01 0.03 0.04 0.03 0.04 0.05 0.05 0.05 0.05 0.05 0.06 0.07 0.07 0.07
0.00 0.00 0.00 0.00 0.00 0.00 0.00 0.00 0.00 0.00 0.00 0.00 0.00 0.00 0.00 0.00 0.00 0.00 0.00 0.00 0.00 0.00 0.00 0.00 0.00 0.00 0.00 0.01 0.01 0.01 0.01 0.02 0.05 0.06 0.06 0.07 0.08 0.07 0.08 0.10 0.10 0.10 0.10 0.09
0.00 0.00 0.00 0.00 0.00 0.00 0.00 0.00 0.00 0.00 0.00 0.00 0.00 0.00 0.00 0.00 0.00 0.00 0.00 0.00 0.00 0.00 0.00 0.00 0.00 0.00 0.00 0.00 0.00 0.00 0.01 0.01 0.04 0.08 0.10 0.14 0.17 0.18 0.17 0.16 0.15 0.15 0.13 0.11
0.00 0.00 0.00 0.00 0.00 0.00 0.00 0.00 0.00 0.00 0.00 0.00 0.00 0.00 0.00 0.00 0.00 0.00 0.00 0.00 0.00 0.00 0.00 0.00 0.00 0.00 0.00 0.00 0.01 0.01 0.01 0.02 0.04 0.06 0.09 0.10 0.13 0.17 0.18 0.15 0.14 0.13 0.11 0.10
0.00 0.00 0.00 0.00 0.00 0.00 0.00 0.00 0.00 0.00 0.00 0.00 0.00 0.00 0.00 0.00 0.00 0.00 0.00 0.00 0.00 0.00 0.00 0.00 0.00 0.01 0.01 0.01 0.01 0.01 0.01 0.02 0.03 0.04 0.06 0.05 0.07 0.10 0.15 0.15 0.14 0.15 0.12 0.09
0.00 0.00 0.00 0.00 0.00 0.00 0.00 0.00 0.00 0.00 0.00 0.00 0.00 0.00 0.00 0.00 0.00 0.00 0.00 0.00 0.00 0.00 0.00 0.00 0.01 0.01 0.01 0.01 0.01 0.01 0.01 0.01 0.02 0.03 0.04 0.04 0.05 0.07 0.10 0.13 0.14 0.15 0.14 0.11
0.00 0.00 0.00 0.00 0.00 0.00 0.00 0.00 0.00 0.00 0.00 0.00 0.00 0.00 0.00 0.00 0.00 0.00 0.00 0.00 0.01 0.00 0.00 0.00 0.01 0.02 0.02 0.02 0.01 0.01 0.01 0.01 0.02 0.03 0.03 0.04 0.05 0.06 0.07 0.08 0.11 0.13 0.11 0.10
0.00 0.00 0.00 0.00 0.00 0.01 0.00 0.00 0.00 0.00 0.00 0.00 0.00 0.00 0.00 0.00 0.01 0.01 0.01 0.01 0.01 0.01 0.01 0.01 0.01 0.03 0.04 0.04 0.02 0.01 0.02 0.02 0.02 0.03 0.03 0.05 0.07 0.06 0.06 0.07 0.09 0.09 0.09 0.11
0.00 0.00 0.00 0.00 0.00 0.00 0.00 0.00 0.00 0.01 0.00 0.00 0.00 0.00 0.00 0.00 0.01 0.01 0.01 0.01 0.02 0.02 0.02 0.02 0.02 0.03 0.03 0.03 0.03 0.04 0.04 0.03 0.04 0.03 0.03 0.05 0.06 0.07 0.08 0.10 0.12 0.13 0.14 0.16
0.00 0.00 0.00 0.00 0.00 0.00 0.00 0.00 0.01 0.01 0.00 0.00 0.00 0.00 0.00 0.01 0.00 0.00 0.00 0.01 0.02 0.02 0.02 0.02 0.02 0.02 0.03 0.03 0.03 0.04 0.04 0.04 0.04 0.03 0.04 0.04 0.05 0.06 0.08 0.12 0.17 0.19 0.18 0.19
0.00 0.00 0.00 0.00 0.00 0.00 0.00 0.01 0.01 0.00 0.00 0.00 0.00 0.00 0.01 0.01 0.00 0.00 0.00 0.01 0.01 0.01 0.02 0.03 0.02 0.02 0.02 0.02 0.02 0.03 0.04 0.05 0.06 0.07 0.06 0.07 0.09 0.09 0.10 0.13 0.17 0.18 0.16 0.14
0.01 0.00 0.00 0.01 0.01 0.01 0.01 0.01 0.01 0.00 0.00 0.01 0.01 0.00 0.00 0.00 0.00 0.00 0.00 0.00 0.01 0.01 0.03 0.03 0.03 0.02 0.02 0.02 0.03 0.03 0.04 0.06 0.09 0.11 0.13 0.14 0.14 0.14 0.14 0.15 0.15 0.15 0.15 0.12
0.01 0.01 0.01 0.01 0.01 0.01 0.01 0.01 0.01 0.01 0.00 0.01 0.01 0.01 0.01 0.01 0.01 0.00 0.00 0.00 0.00 0.01 0.02 0.03 0.03 0.03 0.03 0.03 0.04 0.05 0.06 0.09 0.11 0.11 0.13 0.21 0.24 0.20 0.16 0.16 0.18 0.15 0.15 0.15
0.00 0.01 0.01 0.01 0.01 0.01 0.02 0.02 0.02 0.01 0.01 0.01 0.01 0.01 0.01 0.01 0.01 0.00 0.01 0.01 0.01 0.01 0.02 0.02 0.03 0.05 0.07 0.07 0.06 0.06 0.07 0.09 0.10 0.11 0.13 0.15 0.16 0.17 0.19 0.18 0.18 0.21 0.21 0.23
MSLP
1010.96 1011.31 1011.53 1011.63 1011.65 1011.60 1011.50 1011.37 1011.18 1010.91 1010.54 1010.07 1009.52 1008.92 1008.32 1007.81 1007.43 1007.24 1007.25 1007.45 1007.81 1008.29 1008.83 1009.41 1010.00 1010.58 1011.17 1011.77 1012.38 1012.99 1013.58 1014.12 1014.57 1014.90 1015.11 1015.20 1015.20 1015.17 1015.15 1015.20 1015.33 1015.58 1015.91 1016.30
1011.12 1011.37 1011.50 1011.54 1011.52 1011.48 1011.44 1011.39 1011.29 1011.12 1010.83 1010.41 1009.87 1009.24 1008.60 1008.00 1007.53 1007.24 1007.16 1007.27 1007.57 1008.00 1008.52 1009.08 1009.65 1010.24 1010.84 1011.47 1012.11 1012.77 1013.42 1014.03 1014.55 1014.94 1015.19 1015.30 1015.30 1015.23 1015.15 1015.12 1015.18 1015.35 1015.64 1016.00
1011.07 1011.23 1011.28 1011.27 1011.25 1011.26 1011.30 1011.35 1011.37 1011.30 1011.10 1010.74 1010.22 1009.58 1008.88 1008.21 1007.64 1007.25 1007.06 1007.09 1007.30 1007.66 1008.11 1008.63 1009.17 1009.74 1010.33 1010.96 1011.62 1012.32 1013.03 1013.70 1014.30 1014.76 1015.08 1015.24 1015.25 1015.18 1015.07 1014.98 1014.98 1015.10 1015.33 1015.67
1010.81 1010.89 1010.89 1010.87 1010.88 1010.96 1011.10 1011.28 1011.42 1011.47 1011.37 1011.07 1010.57 1009.92 1009.17 1008.42 1007.77 1007.27 1006.97 1006.89 1007.01 1007.28 1007.66 1008.10 1008.59 1009.11 1009.67 1010.28 1010.95 1011.67 1012.42 1013.15 1013.81 1014.36 1014.74 1014.96 1015.02 1014.97 1014.85 1014.75 1014.72 1014.80 1015.00 1015.31
1010.38 1010.40 1010.38 1010.39 1010.46 1010.64 1010.90 1011.21 1011.49 1011.65 1011.64 1011.39 1010.92 1010.25 1009.46 1008.65 1007.90 1007.30 1006.90 1006.72 1006.73 1006.91 1007.20 1007.57 1008.00 1008.46 1008.97 1009.55 1010.20 1010.91 1011.67 1012.43 1013.14 1013.74 1014.19 1014.47 1014.58 1014.57 1014.49 1014.40 1014.37 1014.43 1014.62 1014.93
1009.83 1009.84 1009.84 1009.89 1010.05 1010.34 1010.72 1011.16 1011.55 1011.82 1011.87 1011.68 1011.22 1010.54 1009.72 1008.85 1008.03 1007.35 1006.87 1006.59 1006.52 1006.61 1006.83 1007.14 1007.49 1007.90 1008.36 1008.88 1009.48 1010.16 1010.89 1011.64 1012.35 1012.97 1013.45 1013.78 1013.95 1013.99 1013.96 1013.91 1013.91 1013.99 1014.20 1014.51
1009.25 1009.26 1009.30 1009.42 1009.68 1010.07 1010.56 1011.10 1011.59 1011.92 1012.03 1011.87 1011.42 1010.74 1009.90 1009.00 1008.14 1007.41 1006.87 1006.54 1006.41 1006.45 1006.62 1006.87 1007.18 1007.54 1007.94 1008.40 1008.93 1009.53 1010.19 1010.88 1011.53 1012.12 1012.60 1012.93 1013.14 1013.23 1013.26 1013.27 1013.33 1013.46 1013.71 1014.05
1008.67 1008.71 1008.80 1009.00 1009.34 1009.81 1010.39 1010.99 1011.53 1011.90 1012.04 1011.89 1011.46 1010.79 1009.95 1009.05 1008.19 1007.46 1006.91 1006.57 1006.43 1006.46 1006.61 1006.84 1007.12 1007.44 1007.79 1008.18 1008.63 1009.12 1009.67 1010.23 1010.78 1011.28 1011.69 1012.00 1012.21 1012.33 1012.42 1012.50 1012.63 1012.84 1013.15 1013.54
1008.16 1008.23 1008.37 1008.62 1009.02 1009.55 1010.16 1010.78 1011.32 1011.70 1011.83 1011.69 1011.28 1010.63 1009.83 1008.97 1008.16 1007.48 1006.97 1006.67 1006.56 1006.61 1006.79 1007.04 1007.32 1007.62 1007.92 1008.25 1008.59 1008.96 1009.35 1009.76 1010.15 1010.50 1010.80 1011.03 1011.21 1011.35 1011.47 1011.63 1011.84 1012.14 1012.52 1012.98
1007.71 1007.81 1007.99 1008.28 1008.71 1009.24 1009.83 1010.43 1010.93 1011.27 1011.38 1011.23 1010.84 1010.24 1009.51 1008.74 1008.03 1007.43 1007.02 1006.80 1006.76 1006.88 1007.11 1007.39 1007.70 1008.00 1008.28 1008.54 1008.78 1009.02 1009.25 1009.46 1009.66 1009.84 1009.98 1010.11 1010.22 1010.34 1010.49 1010.71 1011.00 1011.38 1011.85 1012.39
1007.33 1007.46 1007.66 1007.97 1008.37 1008.87 1009.41 1009.92 1010.34 1010.61 1010.68 1010.52 1010.16 1009.63 1009.00 1008.35 1007.77 1007.31 1007.02 1006.91 1006.98 1007.18 1007.47 1007.81 1008.15 1008.47 1008.73 1008.95 1009.11 1009.22 1009.29 1009.32 1009.33 1009.32 1009.30 1009.29 1009.31 1009.39 1009.55 1009.81 1010.18 1010.64 1011.20 1011.81
1007.03 1007.17 1007.38 1007.67 1008.04 1008.46 1008.90 1009.30 1009.61 1009.79 1009.80 1009.63 1009.30 1008.85 1008.34 1007.84 1007.42 1007.11 1006.96 1006.98 1007.14 1007.42 1007.78 1008.18 1008.56 1008.90 1009.17 1009.35 1009.46 1009.48 1009.42 1009.30 1009.13 1008.95 1008.77 1008.63 1008.56 1008.59 1008.74 1009.03 1009.45 1009.99 1010.62 1011.31
1006.80 1006.96 1007.17 1007.43 1007.73 1008.05 1008.36 1008.63 1008.81 1008.88 1008.83 1008.64 1008.35 1007.99 1007.61 1007.26 1007.00 1006.85 1006.84 1006.96 1007.22 1007.57 1007.98 1008.41 1008.83 1009.19 1009.47 1009.66 1009.74 1009.71 1009.57 1009.35 1009.06 1008.75 1008.45 1008.20 1008.05 1008.03 1008.17 1008.47 1008.93 1009.52 1010.21 1010.96
1006.64 1006.82 1007.02 1007.25 1007.48 1007.70 1007.88 1008.00 1008.04 1008.00 1007.88 1007.67 1007.42 1007.15 1006.89 1006.69 1006.58 1006.57 1006.67 1006.89 1007.21 1007.60 1008.04 1008.49 1008.92 1009.30 1009.61 1009.82 1009.91 1009.88 1009.72 1009.47 1009.13 1008.75 1008.38 1008.06 1007.85 1007.79 1007.91 1008.21 1008.69 1009.32 1010.05 1010.85
1006.55 1006.75 1006.96 1007.16 1007.33 1007.44 1007.49 1007.47 1007.39 1007.24 1007.04 1006.82 1006.60 1006.40 1006.26 1006.19 1006.21 1006.32 1006.52 1006.80 1007.15 1007.56 1007.99 1008.43 1008.86 1009.26 1009.59 1009.84 1009.98 1009.99 1009.89 1009.66 1009.34 1008.96 1008.58 1008.24 1008.01 1007.93 1008.03 1008.32 1008.80 1009.45 1010.20 1011.03
1006.52 1006.77 1006.99 1007.16 1007.27 1007.30 1007.24 1007.09 1006.89 1006.64 1006.38 1006.14 1005.95 1005.82 1005.78 1005.83 1005.97 1006.17 1006.44 1006.76 1007.12 1007.51 1007.91 1008.32 1008.73 1009.12 1009.48 1009.77 1009.98 1010.09 1010.07 1009.94 1009.70 1009.39 1009.06 1008.75 1008.53 1008.45 1008.55 1008.83 1009.31 1009.94 1010.70 1011.54
1006.55 1006.82 1007.06 1007.23 1007.29 1007.25 1007.10 1006.86 1006.55 1006.23 1005.92 1005.67 1005.51 1005.45 1005.50 1005.65 1005.88 1006.17 1006.49 1006.83 1007.18 1007.53 1007.88 1008.24 1008.61 1008.98 1009.35 1009.69 1009.98 1010.20 1010.31 1010.31 1010.20 1010.02 1009.78 1009.56 1009.39 1009.34 1009.44 1009.72 1010.18 1010.80 1011.54 1012.38
1006.59 1006.90 1007.15 1007.31 1007.35 1007.26 1007.04 1006.73 1006.36 1005.98 1005.64 1005.40 1005.27 1005.27 1005.40 1005.65 1005.97 1006.32 1006.69 1007.05 1007.38 1007.68 1007.97 1008.26 1008.57 1008.91 1009.28 1009.65 1010.02 1010.34 1010.60 1010.75 1010.81 1010.78 1010.69 1010.58 1010.50 1010.50 1010.64 1010.92 1011.37 1011.96 1012.68 1013.49
1006.64 1006.95 1007.21 1007.36 1007.39 1007.27 1007.01 1006.66 1006.25 1005.85 1005.51 1005.28 1005.20 1005.27 1005.48 1005.81 1006.22 1006.64 1007.05 1007.42 1007.73 1007.99 1008.21 1008.43 1008.67 1008.96 1009.30 1009.69 1010.11 1010.53 1010.91 1011.22 1011.46 1011.60 1011.68 1011.71 1011.75 1011.84 1012.02 1012.32 1012.76 1013.34 1014.03 1014.81
1006.67 1006.97 1007.22 1007.36 1007.37 1007.23 1006.97 1006.60 1006.18 1005.79 1005.47 1005.28 1005.25 1005.39 1005.69 1006.11 1006.59 1007.08 1007.53 1007.92 1008.22 1008.43 1008.59 1008.73 1008.89 1009.11 1009.40 1009.78 1010.23 1010.71 1011.20 1011.67 1012.06 1012.39 1012.64 1012.84 1013.01 1013.21 1013.46 1013.80 1014.26 1014.82 1015.49 1016.24
1006.69 1006.95 1007.17 1007.29 1007.29 1007.16 1006.89 1006.54 1006.15 1005.78 1005.51 1005.37 1005.40 1005.61 1005.99 1006.48 1007.03 1007.58 1008.08 1008.48 1008.77 1008.95 1009.05 1009.12 1009.20 1009.34 1009.57 1009.91 1010.35 1010.88 1011.45 1012.03 1012.58 1013.07 1013.50 1013.86 1014.19 1014.51 1014.86 1015.26 1015.74 1016.31 1016.97 1017.69
1006.72 1006.93 1007.10 1007.20 1007.19 1007.06 1006.82 1006.50 1006.16 1005.84 1005.62 1005.54 1005.63 1005.91 1006.34 1006.89 1007.50 1008.10 1008.63 1009.04 1009.33 1009.48 1009.53 1009.53 1009.54 1009.60 1009.76 1010.05 1010.47 1011.00 1011.63 1012.30 1012.97 1013.62 1014.21 1014.74 1015.22 1015.68 1016.13 1016.61 1017.14 1017.73 1018.38 1019.07
1006.79 1006.93 1007.05 1007.12 1007.11 1007.00 1006.79 1006.52 1006.24 1005.98 1005.82 1005.79 1005.94 1006.25 1006.73 1007.31 1007.95 1008.58 1009.12 1009.55 1009.83 1009.97 1009.99 1009.94 1009.88 1009.87 1009.97 1010.20 1010.59 1011.12 1011.78 1012.52 1013.29 1014.06 1014.79 1015.48 1016.11 1016.70 1017.26 1017.82 1018.41 1019.02 1019.67 1020.34
1006.91 1006.98 1007.05 1007.10 1007.09 1007.01 1006.85 1006.64 1006.41 1006.22 1006.11 1006.13 1006.31 1006.65 1007.13 1007.72 1008.37 1009.00 1009.55 1009.98 1010.26 1010.39 1010.40 1010.32 1010.23 1010.18 1010.23 1010.42 1010.77 1011.29 1011.96 1012.74 1013.58 1014.45 1015.30 1016.11 1016.87 1017.58 1018.25 1018.89 1019.52 1020.16 1020.80 1021.46
1007.06 1007.07 1007.12 1007.15 1007.16 1007.11 1007.00 1006.86 1006.69 1006.56 1006.50 1006.55 1006.73 1007.07 1007.54 1008.11 1008.74 1009.35 1009.89 1010.32 1010.62 1010.76 1010.78 1010.71 1010.62 1010.56 1010.59 1010.76 1011.09 1011.60 1012.27 1013.07 1013.96 1014.88 1015.82 1016.72 1017.57 1018.37 1019.11 1019.81 1020.49 1021.14 1021.77 1022.40
1007.19 1007.18 1007.20 1007.25 1007.27 1007.27 1007.22 1007.14 1007.04 1006.96 1006.94 1007.00 1007.19 1007.50 1007.94 1008.48 1009.06 1009.65 1010.18 1010.62 1010.94 1011.12 1011.19 1011.16 1011.11 1011.07 1011.12 1011.29 1011.62 1012.12 1012.78 1013.58 1014.47 1015.43 1016.39 1017.34 1018.25 1019.10 1019.89 1020.62 1021.30 1021.95 1022.57 1023.16
Thickness
5795 5789 5788 5796 5800 5800 5796 5792 5790 5797 5809 5804 5804 5806 5814 5818 5816 5813 5810 5807 5801 5796 5795 5791 5785 5779 5772 5766 5760 5756 5751 5747 5743 5740 5738 5735 5733 5733 5732 5733 5732 5732 5732 5732
5781 5783 5799 5804 5800 5793 5788 5784 5788 5797 5804 5800 5800 5804 5813 5814 5812 5812 5809 5805 5801 5796 5791 5786 5781 5776 5771 5764 5760 5755 5750 5746 5743 5740 5739 5738 5735 5733 5733 5732 5731 5731 5731 5731
5781 5794 5802 5793 5786 5781 5784 5784 5788 5787 5796 5801 5796 5797 5805 5811 5813 5811 5810 5808 5804 5797 5790 5784 5779 5775 5770 5764 5760 5756 5751 5747 5743 5741 5738 5735 5732 5730 5729 5730 5730 5731 5731 5731
5783 5796 5789 5784 5783 5783 5778 5793 5790 5786 5783 5789 5789 5780 5799 5805 5804 5805 5806 5805 5801 5797 5792 5785 5779 5774 5770 5766 5762 5757 5751 5747 5743 5740 5738 5735 5733 5730 5731 5731 5732 5731 5731 5730
5780 5788 5782 5778 5785 5786 5788 5795 5789 5786 5782 5780 5788 5778 5795 5804 5797 5801 5803 5802 5800 5796 5792 5785 5780 5775 5772 5767 5762 5757 5751 5747 5744 5741 5739 5736 5735 5734 5733 5732 5731 5730 5730 5729
5787 5793 5790 5789 5795 5793 5791 5784 5782 5783 5783 5765 5780 5774 5781 5801 5798 5800 5800 5797 5794 5792 5788 5784 5780 5775 5770 5767 5762 5757 5752 5747 5745 5741 5740 5737 5735 5733 5730 5729 5729 5728 5729 5729
5769 5778 5789 5794 5783 5784 5782 5769 5760 5758 5762 5768 5782 5773 5783 5801 5804 5801 5797 5794 5792 5789 5786 5781 5776 5772 5768 5764 5760 5756 5751 5747 5745 5742 5740 5739 5736 5733 5730 5729 5728 5728 5729 5728
5758 5763 5780 5787 5783 5778 5776 5776 5761 5754 5762 5774 5772 5771 5791 5803 5804 5803 5800 5795 5790 5787 5786 5781 5777 5772 5767 5763 5758 5754 5750 5746 5744 5742 5739 5738 5736 5734 5732 5731 5730 5729 5729 5730
5767 5766 5786 5790 5793 5786 5773 5775 5790 5775 5769 5763 5775 5782 5795 5799 5797 5797 5794 5790 5786 5785 5783 5779 5775 5771 5767 5762 5758 5754 5749 5745 5743 5741 5738 5736 5735 5734 5732 5731 5729 5729 5729 5729
5777 5763 5776 5783 5785 5784 5787 5785 5776 5767 5750 5750 5765 5772 5782 5788 5790 5791 5789 5788 5785 5784 5781 5778 5773 5769 5766 5762 5757 5754 5749 5745 5743 5741 5738 5736 5734 5732 5731 5729 5728 5727 5727 5727
5777 5762 5765 5771 5768 5769 5769 5770 5773 5774 5773 5758 5757 5773 5798 5793 5792 5790 5790 5789 5786 5783 5781 5777 5772 5768 5765 5761 5757 5752 5748 5745 5742 5739 5737 5735 5733 5731 5729 5728 5727 5726 5725 5724
5771 5765 5760 5768 5782 5789 5781 5778 5773 5761 5759 5766 5767 5775 5798 5797 5796 5794 5791 5788 5785 5782 5780 5776 5771 5766 5763 5760 5756 5752 5749 5745 5742 5739 5736 5733 5731 5729 5728 5726 5725 5724 5722 5721
5764 5755 5743 5748 5758 5769 5772 5777 5779 5777 5771 5767 5764 5773 5793 5793 5791 5790 5788 5784 5781 5778 5776 5773 5768 5764 5761 5758 5755 5752 5749 5745 5743 5739 5735 5731 5729 5727 5725 5724 5723 5721 5720 5718
5764 5757 5755 5754 5765 5771 5766 5770 5776 5773 5768 5766 5770 5778 5783 5784 5783 5783 5782 5780 5778 5774 5771 5768 5763 5760 5758 5756 5753 5751 5748 5746 5742 5738 5734 5731 5728 5726 5724 5722 5720 5718 5716 5715
5756 5751 5758 5769 5775 5775 5772 5771 5771 5770 5777 5773 5777 5779 5782 5782 5780 5779 5778 5775 5772 5769 5766 5763 5760 5757 5754 5752 5750 5748 5746 5744 5741 5737 5734 5731 5728 5725 5722 5719 5717 5715 5714 5712
5748 5747 5751 5752 5763 5765 5762 5768 5769 5769 5774 5775 5777 5775 5783 5781 5779 5774 5773 5770 5766 5764 5762 5760 5757 5754 5751 5749 5747 5745 5743 5741 5738 5734 5732 5729 5726 5723 5719 5716 5714 5712 5710 5708
5740 5738 5737 5741 5752 5750 5743 5760 5765 5765 5771 5773 5769 5773 5775 5770 5767 5766 5766 5766 5763 5761 5759 5756 5754 5752 5749 5747 5745 5742 5741 5739 5735 5732 5729 5726 5723 5719 5716 5713 5710 5707 5705 5703
5728 5730 5735 5738 5732 5719 5752 5766 5767 5763 5765 5770 5769 5769 5768 5764 5760 5760 5762 5760 5758 5757 5755 5753 5752 5749 5747 5745 5743 5741 5739 5736 5732 5728 5725 5723 5719 5715 5712 5708 5704 5701 5699 5696
5725 5722 5727 5728 5722 5729 5738 5751 5756 5751 5750 5762 5760 5759 5758 5757 5753 5750 5751 5753 5752 5752 5750 5749 5748 5747 5743 5741 5739 5737 5733 5731 5727 5723 5720 5718 5715 5711 5707 5702 5698 5695 5692 5689
5713 5717 5718 5717 5713 5712 5734 5746 5752 5747 5736 5752 5752 5749 5750 5749 5747 5740 5739 5741 5741 5741 5741 5741 5741 5740 5736 5735 5734 5730 5727 5724 5720 5718 5715 5712 5709 5705 5700 5696 5691 5688 5684 5680
5698 5700 5705 5707 5707 5719 5729 5736 5738 5721 5728 5739 5743 5742 5742 5739 5737 5732 5731 5729 5730 5730 5730 5731 5731 5729 5727 5727 5726 5722 5719 5716 5713 5711 5707 5704 5700 5696 5692 5688 5683 5679 5674 5669
5694 5695 5694 5700 5697 5704 5717 5724 5722 5720 5726 5730 5731 5732 5729 5726 5723 5721 5719 5718 5718 5718 5719 5719 5718 5717 5717 5717 5715 5712 5708 5707 5704 5701 5697 5693 5689 5687 5683 5678 5674 5669 5665 5659
5686 5691 5698 5698 5696 5698 5707 5710 5712 5716 5716 5718 5720 5721 5718 5714 5711 5709 5707 5706 5706 5706 5706 5707 5707 5705 5704 5705 5705 5701 5698 5696 5694 5689 5685 5681 5677 5673 5671 5668 5664 5659 5655 5650
5672 5678 5682 5682 5686 5691 5696 5700 5702 5705 5705 5709 5710 5710 5709 5704 5702 5699 5697 5695 5695 5695 5696 5696 5695 5693 5691 5691 5691 5690 5688 5686 5683 5678 5673 5668 5664 5660 5657 5654 5651 5648 5644 5640
5664 5667 5671 5670 5675 5680 5683 5686 5689 5692 5695 5697 5698 5699 5698 5695 5692 5690 5687 5686 5685 5684 5684 5684 5683 5680 5679 5679 5679 5677 5676 5675 5670 5665 5660 5655 5650 5646 5641 5636 5632 5631 5628 5627
5657 5659 5660 5663 5667 5670 5671 5675 5679 5680 5682 5684 5684 5685 5685 5684 5682 5680 5677 5675 5674 5673 5673 5672 5671 5669 5667 5667 5666 5665 5664 5663 5659 5653 5648 5644 5638 5632 5628 5623 5614 5608 5608 5605